Other Public Products
Issued by NWS Charleston, SC

Current Version | Previous Version | Text Only | Print | Product List | Glossary On
Versions: 1 2 3 4 5 6 7 8 9 10 11 12 13 14 15 16 17 18 19 20 21 22 23 24 25 26 27 28 29 30 31 32 33 34 35 36 37 38 39 40 41 42 43 44 45 46 47 48 49 50
000 FPUS82 KCHS 061427 OPUCHS TEST...KCHS/KSAV Gateway Observations...TEST National Weather Service Charleston SC 900 AM EST TUE DEC 06 2016 NOTE: "fair" indicates few or no clouds below 12,000 feet with no significant weather and/or obstructions to visibility. SCZ050-WAZ558-NCZ071-TXZ119-213-PAZ071-DCZ001-FLZ074-172-MI076- NYZ176-178-MAZ016-IL014-TNZ027-NJZ106-GAZ044-MD014-061500- ...Gateway Observations for Charleston International... CITY SKY/WX TMP DP RH WIND PRES REMARKS Chas Airport LGT RAIN 61 58 90 NE6 29.80R Seattle MOCLDY 33 32 96 N7 30.06R WCI 27 Charlotte LGT RAIN 45 42 89 NE10 29.88R FOG Dallas DFW LGT RAIN 49 47 93 N17G24 29.92R FOG Dallas Love DRIZZLE 50 48 93 N7 29.91R FOG Philladelphia CLOUDY 42 30 62 NE8 30.13F Wash National LGT RAIN 44 33 65 NE7 30.10F Baltimore CLOUDY 43 32 65 E12 30.10F Miami MOSUNNY 80 74 81 S14 29.99R Detroit CLOUDY 39 34 82 E13 29.85F WCI 31 Newark CLOUDY 40 31 70 NE6 30.15R WCI 36 Laguardia CLOUDY 44 30 57 VRB5 30.14R J F K PTSUNNY 42 30 62 CALM 30.16R Boston Logan MOSUNNY 38 30 73 NW9 30.13S WCI 31 Ft. Lauderdale MOSUNNY 81 74 79 S12 29.98R Chicago O`Hare CLOUDY 33 32 96 NE5 29.76F FOG WCI 29 Chicago Midway CLOUDY 33 30 88 NW3 29.77F FOG Houston Bush FOG 50 50 100 CALM 29.89R VSB 1/16 Houston Hobby CLEAR 49 48 97 S3 29.89R Nashville HVY RAIN 55 53 93 W6 29.65R FOG Atlanta LGT RAIN 53 53 100 E10 29.73R VSB 1/2 $$ GAZ044-118-TXZ119-213-NCZ071-DCZ001-MDZ014-506-PAZ021-071-NJZ106- NYZ176-178-MAZ106-OHZ011-021-055-MIZ076-KYZ091-ILZ014-INZ047- MNZ060-061500- ...Gateway Observations for Savannah International... CITY SKY/WX TMP DP RH WIND PRES REMARKS Savannah Arpt FOG 63 61 93 NE3 29.78S VSB 1 Atlanta LGT RAIN 53 53 100 E10 29.73R VSB 1/2 Charlotte LGT RAIN 45 42 89 NE10 29.88R FOG Dallas DFW LGT RAIN 49 47 93 N17G24 29.92R FOG Houston Bush FOG 50 50 100 CALM 29.89R VSB 1/16 Wash National LGT RAIN 44 33 65 NE7 30.10F Wash Dulles LGT RAIN 41 34 76 E5 30.09F Baltimore CLOUDY 43 32 65 E12 30.10F Philadelphia CLOUDY 42 30 62 NE8 30.13F Newark CLOUDY 40 31 70 NE6 30.15R WCI 36 Laguardia CLOUDY 44 30 57 VRB5 30.14R J F K PTSUNNY 42 30 62 CALM 30.16R Boston MOSUNNY 38 30 73 NW9 30.13S WCI 31 Pittsburg CLOUDY 39 29 67 E10 29.86F WCI 32 Akron CLOUDY 37 27 67 E14G21 29.81F WCI 28 Cleveland CLOUDY 39 27 62 E17 29.83F WCI 30 Cincinnati LGT RAIN 40 40 100 E6 29.65F FOG WCI 36 Columbus CLOUDY 38 36 94 E8 29.70F WCI 32 Detroit CLOUDY 39 34 82 E13 29.85F WCI 31 Chicago O`Hare CLOUDY 33 32 96 NE5 29.76F FOG WCI 29 Minneapolis CLOUDY 23 12 62 W16G29 29.73S WCI 10 Indianapolis LGT RAIN 38 35 89 N5 29.71R FOG WCI 34 $$

USA.gov is the U.S. government's official web portal to all federal, state and local government web resources and services.